www.pogodaiklimat.ru

Погода и климат >> Архив погоды >> Тонга >> Аэропорт Фуаамоту


ПОГОДА в Аэропорту Фуаамоту

  • Прогноз погоды в Аэропорту Фуаамоту
  • Монитор погоды в Аэропорту Фуаамоту

АРХИВ ПОГОДЫ в Аэропорту Фуаамоту

Время (UTC), дата Ветер
(напр.,м/с)
 
Видим.   Явления Облачность Т
(С)
Тd
(С)
f
(%)
Тe
(С)
Тes
(С)
Комфортность P
(гПа)
Po
(гПа)
Тmin
(С)
Tmax
(С)
R
(мм)
R24
(мм)
S
(см)
21 15.08 В 2 20 км {морось} 9/9 480 м
[Cu Sc]
+22.9 +19.3 80 +29 +30 очень
душно
1017.9 1013.4
00 16.08 В 2 20 км {морось} 9/9 500 м
[Cu Sc]
+24.2 +19.2 74 +29 +31 душно 1016.7 1012.3 +20.4 0.0
03 16.08 В 3 20 км 9/6 480 м
[Cu Sc Ac trans]
+24.2 +19.2 74 +29 +30 душно 1014.8 1010.4
06 16.08 В 2 20 км 9/4 480 м
[Cu med, cong Ac trans]
+22.7 +19.1 80 +29 +29 очень
душно
1015.3 1010.9
12 16.08 В 2 20 км 10/3 480 м
[Cu hum Ac As]
+22.5 +20.2 87 +29 +29 очень
душно
1016.3 1011.8 +25.6
15 16.08 В 2 20 км слаб. ливневой дождь 10/5 270 м
[Frnb Ac As]
+22.5 +20.8 90 +29 +29 очень
душно
1014.8 1010.4
18 16.08 ЮВ 6 4000 м слаб. ливневой дождь 10/6 270 м
[Frnb Ac As]
+22.3 +20.1 87 +28 +28 душно 1015.8 1011.3 5
21 16.08 ЮВ 5 20 км слаб. дождь 9/5 240 м
[Frnb Ac As]
+20.8 +19.9 95 +26 +27 душно 1017.1 1012.6
00 17.08 ЮВ 5 20 км {дождь} 9/5 270 м
[Frnb Ac lent]
+23.8 +19.8 78 +29 +31 душно 1016.2 1011.8 +19.7 1 6
03 17.08 ЮВ 5 20 км 9/9 300 м
[Cu Sc]
+22.7 +18.8 79 +29 +29 очень
душно
1015.3 1010.9
06 17.08 ЮВ 5 20 км 9/9 270 м
[Cu Sc]
+21.7 +17.4 77 +26 +26 душно 1016.1 1011.6
12 17.08 ЮВ 4 20 км 8/3 480 м
[Cu hum Ac trans]
+21.1 +17.0 77 +25 +25 комфорт 1017.2 1012.7 +24.1
15 17.08 ЮВ 4 20 км 6/6 480 м
[Cu Sc]
+21.0 +16.9 77 +25 +25 комфорт 1016.3 1011.8
18 17.08 ЮВ 4 20 км 3/3 480 м
[Cu Sc Ac trans]
+20.5 +16.7 79 +24 +24 комфорт 1017.0 1012.5
21 17.08 ЮВ 3 20 км 5/5 600 м
[Cu hum]
+23.5 +19.1 76 +28 +32 душно 1018.4 1014.0
00 18.08 ЮВ 5 20 км 3/3 600 м
[Cu hum]
+23.8 +18.1 70 +28 +34 душно 1017.2 1012.8 +20.1
03 18.08 ЮВ 4 20 км 5/5 540 м
[Cu Sc]
+23.6 +18.4 73 +28 +30 душно 1015.3 1010.9
06 18.08 ЮВ 4 20 км 8/8 480 м
[Cu Sc]
+21.7 +17.7 78 +26 +26 душно 1015.9 1011.4
12 18.08 В 2 20 км 8/8 480 м
[Cu Sc]
+21.3 +19.3 88 +26 +26 душно 1016.4 1011.9 +25.3
15 18.08 ЮВ 2 20 км 9/9 480 м
[Cu Sc]
+20.9 +19.5 92 +26 +26 душно 1014.6 1010.1
18 18.08 ЮВ 2 20 км в посл. час ливневой дождь 9/4 270 м
[Frnb Ac As]
+21.2 +19.0 87 +26 +26 душно 1014.4 1009.9 0.0
21 18.08 В 3 20 км слаб. морось 10/3 240 м
[Frnb As trans]
+21.6 +20.7 95 +27 +30 душно 1015.7 1011.2
03 19.08 ЮВ 3 20 км {дождь} 10/4 210 м
[Cb calv As op]
+21.7 +18.4 82 +26 +27 душно 1012.6 1008.1
06 19.08 ЮВ 4 20 км {дождь} 6/6 240 м
[Cu Sc]
+21.5 +17.5 78 +26 +26 душно 1012.9 1008.4 1
12 19.08 ЮВ 3 20 км 9/9 480 м
[Cu Sc]
+21.4 +16.9 76 +25 +25 комфорт 1013.3 1008.8 +22.6 64
15 19.08 ЮВ 4 20 км 9/9 420 м
[Cu Sc]
+21.2 +16.6 75 +25 +25 комфорт 1012.3 1007.8
18 19.08 ЮВ 3 20 км 8/8 480 м
[Cu Sc]
+20.5 +15.9 75 +24 +24 комфорт 1013.3 1008.8
21 19.08 ЮВ 4 20 км 8/8 480 м
[Cu Sc]
+22.5 +15.7 65 +26 +28 жарко 1014.6 1010.2
00 20.08 ЮВ 4 20 км 3/3 500 м
[Cu Sc]
+23.8 +16.0 62 +27 +34 жарко 1013.2 1008.8 +20.3 1
03 20.08 ЮВ 5 20 км 1/1 500 м
[Cu hum]
+23.4 +15.9 63 +28 +31 душно 1011.6 1007.2
06 20.08 ЮВ 2 20 км 3/1 500 м
[Cu Sc Ac trans]
+20.1 +16.3 79 +23 +23 комфорт 1012.0 1007.5
12 20.08 нст 1 20 км 4/4 480 м
[Cu hum]
+15.3 +14.6 96 +16 +16 1013.2 1008.6 +24.6
15 20.08 нст 1 20 км 1/1 480 м
[Cu hum]
+14.7 +14.2 97 +16 +16 1011.6 1007.0
18 20.08 штиль 0 20 км 3/3 480 м
[Cu hum Ac trans]
+14.9 +14.4 97 +15 +15 1012.6 1008.0
21 20.08 СВ 3 20 км 3/3 500 м
[Cu hum]
+23.8 +18.5 72 +28 +34 душно 1013.2 1008.8
00 21.08 СВ 4 20 км 6/6 540 м
[Cu Sc]
+24.9 +19.0 70 +30 +34 душно 1011.4 1007.0 +14.3
03 21.08 С 5 20 км 6/6 540 м
[Cu Sc]
+25.2 +20.7 76 +31 +33 очень
душно
1010.8 1006.4
06 21.08 ЮЗ 6 20 км {ливн. осадки} 9/9 240 м
[Cu Sc]
+23.2 +18.5 75 +29 +29 душно 1012.9 1008.5 0.3
12 21.08 Ю 2 20 км 9/9 240 м
[Cu Sc]
+21.2 +19.2 88 +26 +26 душно 1014.7 1010.2 +27.1
15 21.08 Ю 3 20 км 5/5 480 м
[Cu Sc]
+21.4 +17.7 79 +26 +26 душно 1014.0 1009.5
18 21.08 Ю 3 20 км 5/1 480 м
[Cu Sc Ac trans Ci fib]
+20.5 +17.1 81 +24 +24 комфорт 1015.4 1010.9
21 21.08 ЮВ 4 20 км 3/3 480 м
[Cu Sc Ac trans]
+23.5 +17.3 68 +27 +32 душно 1017.0 1012.6
00 22.08 ЮВ 4 20 км 3/3 500 м
[Cu hum Ac trans]
+24.9 +18.3 67 +29 +37 душно 1015.7 1011.3 +20.3
03 22.08 ЮВ 4 20 км 9/9 480 м
[Cu Sc]
+24.3 +18.7 71 +29 +29 душно 1015.1 1010.7
06 22.08 ЮВ 2 20 км 8/4 500 м
[Cu Sc Ac trans]
+22.3 +18.2 78 +27 +27 душно 1016.3 1011.8
12 22.08 В 2 20 км 9/9 420 м
[Cu Sc]
+22.6 +19.5 83 +29 +29 очень
душно
1017.5 1013.0 +26.1
15 22.08 В 2 20 км 6/1 450 м
[Cu hum Ac trans]
+21.9 +20.1 90 +28 +28 душно 1015.7 1011.2
18 22.08 В 3 20 км 9/1 270 м
[Frnb Ac As]
+22.5 +20.0 86 +29 +29 очень
душно
1016.1 1011.6

 

Местоположение метеостанции Аэропорт Фуаамоту (Тонга): широта -21.24 долгота -175.15 высота над уровнем моря 38 м.

В архиве по умолчанию представлена погода в Аэропорту Фуаамоту за последнюю неделю. Архивные данные за месяц целиком и за предыдущие месяцы, начиная с января 2011 года, Вы можете получить, выбрав интересующий диапазон дат из раскрывающегося списка и нажав кнопку "Ввод!".


*Определитесь, кто Вы:
робот инопланетянин человек

Внимание! Время в таблицах - всемирное. Для получения местного времени необходимо прибавить поправку, которая равна -11 ч.

Смотрите также архив погоды в соседних городах и на ближайших метеорологических станциях:

Погода на Острове Хаапай (Тонга) (183 км)
Погода в Аэропорту Вавау (Тонга) (321 км)
Погода на Оно-и-Лау (Фиджи) (374 км)
Погода на Лакемба (Фиджи) (508 км)
Погода в Ниуэ аэропорту (Кука Острова) (598 км)
Погода в Аэропорту Матаахо (Тонга) (606 км)
Погода на Острове Ниуафооу (Тонга) (633 км)
Погода на Острове Футуна (Уоллис и Футуна) (832 км)
Погода на Станции Togitogiga (Самоа) (878 км)
Погода на Острове Маноно (Самоа) (883 км)

Пояснения к столбцам:

Ветер - указаны скорость ветра в м/с - средняя за 10 мин, порывы в срок и между сроками (в фигурных скобках) и направление, откуда дует ветер: С - северный, СВ - северо-восточный, В - восточный, ЮВ - юго-восточный, Ю - южный, ЮЗ - юго-западный, З - западный, СЗ - северо-западный.
Видимость - горизонтальная дальность видимости в метрах или километрах. При видимости от 1 до 10 км при отсутствии осадков обычно наблюдается дымка, при ухудшении видимости до 1 км и менее - туман. В сухую погоду видимость может ухудшаться дымом, пылью или мглою.
Явления - указаны атмосферные явления, наблюдавшиеся в срок или в последний час перед сроком; фигурными скобками обозначены явления, наблюдавшиеся между сроками (за 1-3 часа до срока); квадратными скобками обозначены град или гололедные отложения с указанием их диаметра в мм.
Облачность - указаны через наклонную черту общая и нижняя облачность в баллах и высота нижней границы облаков в метрах; квадратными скобками обозначены формы облаков: Ci - перистые, Cs - перисто-слоистые, Cc - перисто-кучевые, Ac - высококучевые, As - высокослоистые, Sc - слоисто-кучевые, Ns - слоисто-дождевые, Cu - кучевые, Cb - кучево-дождевые. Подробнее классификацию облаков см. в Атласе облаков (PDF).
T - Температура воздуха - температура, измеренная на высоте 2 м над землей.
Td - Температура точки росы - температура, при понижении до которой содержащийся в воздухе водяной пар достигнет насыщения.
f - Относительная влажность воздуха - влажноcть воздуха, измеренная на высоте 2 м над землей.
Te - Эффективная температура - температура, которую ощущает одетый по сезону человек в тени. Характеристика душности погоды. При расчете учитывается влияние влажности воздуха и скорости ветра на теплоощущения человека.
Tes - Эффективная температура на солнце - температура, которую ощущает человек, с поправкой на солнечный нагрев. Характеристика знойности погоды. Зависит от высоты солнца над горизонтом, облачности и скорости ветра. Ночью, в пасмурную погоду, а также при ветре 12 м/с и более поправка равна нулю.
P - Атмосферное давление - приведенное к уровню моря атмосферное давление.
Po - Атмосферное давление - измеренное на уровне метеостанции атмосферное давление.
Tmin - Минимальная температура - минимум температуры воздуха на высоте 2 м над землей.
Tmax - Максимальная температура - максимум температуры воздуха на высоте 2 м над землей.
R - Количество осадков - Количество выпавших осадков за период времени, мм. При наведении курсора мыши на число - период времени, за который выпало указанное количество осадков.
R24 - Количество осадков - Количество выпавших осадков за 24 часа, мм.
S - Снежный покров - Высота снежного покрова, см. При наведении курсора мыши на число - состояние снежного покрова и степень покрытия местности в баллах.